Location: Domont
(49.0278°N, 2.3264°E)
Time: 19:51:24
(UTC+00:00)

AO-73 - Pass Details

Date: 02 July 2022
Orbit: 579 x 656 km, 97.6° (Epoch: 08 August)

Event Time Altitude Azimuth Distance (km) Brightness Sun altitude
Rises 02:37:25 0° 30° (NNE) 2,962 ? -9.3°
Reaches altitude 10° 02:40:40 10° 56° (NE) 2,059 ? -9.0°
Maximum altitude 02:43:03 14° 88° (E) 1,800 ? -8.8°
Drops below altitude 10° 02:45:26 10° 120° (ESE) 2,064 ? -8.5°
Sets 02:48:41 0° 145° (SE) 2,974 ? -8.2°
